{"data":{"norad_id":60925,"intl_designator":"2024-155B","name":"STARLINK-11245 [DTC]","alt_names":[],"object_type":"PAYLOAD","status":"ACTIVE","operator":null,"country":"US","launch_date":"2024-08-31","launch_site_code":"AFWTR","launch_vehicle":null,"mission":null,"orbit_class":"UNKNOWN","rcs_meters":null,"size_class":null,"mass_kg":null,"dimensions":null,"purposes":["comms"],"wikipedia_slug":null,"has_3d_model":false,"image_url":null,"decayed_at":null,"tle_current":{"epoch":"2026-09-21T19:34:35.995296Z","epoch_age_seconds":74895,"freshness":"FRESH","line1":"1 60925U 24155B   26264.81569439 -.00000607  00000+0 -14832-6 0  9992","line2":"2 60925  53.1600  94.6126 0001290  69.2455 290.8701 15.69710003119202","mean_motion":15.69710003,"eccentricity":0.000129,"inclination_deg":53.16,"raan_deg":94.6126,"arg_perigee_deg":69.2455,"mean_anomaly_deg":290.8701,"bstar":-1.4832e-7,"rev_number":11920,"period_min":91.736690041339,"perigee_km":358.85755741223,"apogee_km":360.59592625763,"semimajor_km":6737.8637418349,"source":"CELESTRAK","updated_at":"2026-09-22T09:00:49.288372Z"}}}